When you browse on this site, cookies collect data to enhance your experience and personalize the content and advertising you see.
Visit our Privacy Policy to learn more. By continuing to use the site, you agree to this use of cookies and data.
  • In Denmark
  • List of Countries
  • For 7 days
  • Water Temperature
  • Weather Map
  • Weather Widgets
  • user-avatar
    Login

    Hourly Weather Biskira

    Today, 7 April, Tuesday

    Time Temperature Precipitation Wind Pressure Humidity
    00:00 +21°C° 0 mm 2 mps 757 mmHg 46%
    01:00 +20°C° 0 mm 3 mps 757 mmHg 50%
    02:00 +19°C° 0 mm 4 mps 757 mmHg 53%
    03:00 +17°C° 0 mm 5 mps 756 mmHg 56%
    04:00 +18°C° 0 mm 4 mps 757 mmHg 57%
    05:00 +18°C° 0 mm 4 mps 757 mmHg 58%
    06:00 +17°C° 0 mm 3 mps 758 mmHg 59%
    07:00 +18°C° 0 mm 3 mps 758 mmHg 54%
    08:00 +19°C° 0 mm 4 mps 758 mmHg 50%
    09:00 +20°C° 0 mm 4 mps 758 mmHg 45%
    10:00 +21°C° 0 mm 4 mps 758 mmHg 41%
    11:00 +22°C° 0 mm 4 mps 758 mmHg 38%
    12:00 +23°C° 0 mm 4 mps 758 mmHg 34%
    13:00 +24°C° 0 mm 3 mps 757 mmHg 32%
    14:00 +25°C° 0 mm 3 mps 757 mmHg 31%
    15:00 +25°C° 0 mm 3 mps 756 mmHg 30%
    16:00 +25°C° 0 mm 2 mps 756 mmHg 31%
    17:00 +24°C° 0 mm 2 mps 756 mmHg 32%
    18:00 +24°C° 0 mm 2 mps 756 mmHg 32%
    19:00 +24°C° 0 mm 2 mps 757 mmHg 34%
    20:00 +23°C° 0 mm 2 mps 757 mmHg 36%
    21:00 +23°C° 0 mm 2 mps 757 mmHg 38%
    22:00 +21°C° 0 mm 2 mps 757 mmHg 39%
    23:00 +21°C° 0 mm 2 mps 757 mmHg 40%

    Tomorrow, 8 April, Wednesday

    Time Temperature Precipitation Wind Pressure Humidity
    00:00 +20°C° 0 mm 3 mps 757 mmHg 41%
    01:00 +19°C° 0 mm 3 mps 757 mmHg 42%
    02:00 +19°C° 0 mm 3 mps 757 mmHg 44%
    03:00 +18°C° 0 mm 3 mps 757 mmHg 45%
    04:00 +18°C° 0 mm 3 mps 757 mmHg 46%
    05:00 +17°C° 0 mm 3 mps 757 mmHg 48%
    06:00 +17°C° 0 mm 3 mps 758 mmHg 49%
    07:00 +18°C° 0 mm 4 mps 758 mmHg 46%
    08:00 +19°C° 0 mm 4 mps 758 mmHg 43%
    09:00 +20°C° 0 mm 4 mps 758 mmHg 40%
    10:00 +21°C° 0 mm 4 mps 757 mmHg 38%
    11:00 +22°C° 0 mm 4 mps 757 mmHg 36%
    12:00 +23°C° 0 mm 4 mps 757 mmHg 34%
    13:00 +24°C° 0 mm 3 mps 756 mmHg 34%
    14:00 +25°C° 0 mm 3 mps 756 mmHg 33%
    15:00 +25°C° 0 mm 2 mps 755 mmHg 32%
    16:00 +25°C° 0 mm 2 mps 755 mmHg 33%
    17:00 +25°C° 0 mm 2 mps 755 mmHg 34%
    18:00 +25°C° 0 mm 1 mps 755 mmHg 35%
    19:00 +24°C° 0 mm 2 mps 755 mmHg 36%
    20:00 +24°C° 0 mm 2 mps 756 mmHg 38%
    21:00 +22°C° 0 mm 3 mps 756 mmHg 40%
    22:00 +21°C° 0 mm 3 mps 756 mmHg 41%
    23:00 +21°C° 0 mm 2 mps 756 mmHg 42%

    Day after tomorrow, 9 April, Thursday

    Time Temperature Precipitation Wind Pressure Humidity
    00:00 +20°C° 0 mm 2 mps 756 mmHg 43%
    01:00 +20°C° 0 mm 3 mps 756 mmHg 46%
    02:00 +19°C° 0 mm 4 mps 756 mmHg 48%
    03:00 +19°C° 0 mm 5 mps 755 mmHg 51%
    04:00 +17°C° 0 mm 5 mps 756 mmHg 53%
    05:00 +17°C° 0 mm 5 mps 756 mmHg 55%
    06:00 +16°C° 0 mm 5 mps 756 mmHg 57%
    07:00 +17°C° 0 mm 5 mps 756 mmHg 55%
    08:00 +19°C° 0 mm 5 mps 756 mmHg 53%
    09:00 +20°C° 0 mm 5 mps 757 mmHg 50%
    10:00 +20°C° 0 mm 5 mps 757 mmHg 49%
    11:00 +20°C° 0 mm 4 mps 756 mmHg 47%
    12:00 +21°C° 0 mm 4 mps 756 mmHg 46%
    13:00 +21°C° 0 mm 3 mps 756 mmHg 46%
    14:00 +21°C° 0 mm 3 mps 755 mmHg 46%
    15:00 +21°C° 0 mm 2 mps 755 mmHg 46%
    16:00 +21°C° 0 mm 2 mps 755 mmHg 46%
    17:00 +22°C° 0 mm 1 mps 755 mmHg 47%
    18:00 +22°C° 0 mm 1 mps 755 mmHg 47%
    19:00 +21°C° 0 mm 1 mps 755 mmHg 49%
    20:00 +21°C° 0 mm 1 mps 755 mmHg 51%
    21:00 +18°C° 0 mm 0 mps 756 mmHg 53%
    22:00 +18°C° 0 mm 0 mps 756 mmHg 54%
    23:00 +18°C° 0 mm 0 mps 755 mmHg 55%

    10 April, Friday

    Time Temperature Precipitation Wind Pressure Humidity
    00:00 +17°C° 0 mm 0 mps 755 mmHg 56%
    01:00 +19°C° 0 mm 1 mps 755 mmHg 56%
    02:00 +19°C° 0 mm 1 mps 755 mmHg 57%
    03:00 +19°C° 0 mm 1 mps 754 mmHg 57%
    04:00 +19°C° 0 mm 1 mps 755 mmHg 57%
    05:00 +18°C° 0 mm 2 mps 755 mmHg 56%
    06:00 +18°C° 0 mm 3 mps 755 mmHg 55%
    07:00 +18°C° 0.1 mm 3 mps 756 mmHg 55%
    08:00 +18°C° 0.1 mm 3 mps 756 mmHg 55%
    09:00 +18°C° 0.1 mm 3 mps 756 mmHg 55%
    10:00 +19°C° 0 mm 3 mps 756 mmHg 54%
    11:00 +19°C° 0 mm 3 mps 755 mmHg 53%
    12:00 +19°C° 0 mm 2 mps 755 mmHg 52%
    13:00 +20°C° 0 mm 2 mps 755 mmHg 51%
    14:00 +21°C° 0 mm 1 mps 754 mmHg 50%
    15:00 +22°C° 0 mm 1 mps 754 mmHg 49%
    16:00 +21°C° 0 mm 1 mps 754 mmHg 53%
    17:00 +20°C° 0 mm 2 mps 754 mmHg 56%
    18:00 +20°C° 0 mm 3 mps 754 mmHg 60%
    19:00 +19°C° 0 mm 3 mps 754 mmHg 63%
    20:00 +19°C° 0 mm 3 mps 755 mmHg 65%
    21:00 +19°C° 0 mm 3 mps 755 mmHg 68%
    22:00 +18°C° 0 mm 2 mps 755 mmHg 69%
    23:00 +19°C° 0 mm 1 mps 754 mmHg 71%

    11 April, Saturday

    Time Temperature Precipitation Wind Pressure Humidity
    00:00 +19°C° 0 mm 1 mps 754 mmHg 72%
    01:00 +19°C° 0 mm 1 mps 754 mmHg 73%
    02:00 +19°C° 0 mm 1 mps 754 mmHg 74%
    03:00 +18°C° 0 mm 2 mps 754 mmHg 74%
    04:00 +19°C° 0 mm 1 mps 754 mmHg 74%
    05:00 +19°C° 0 mm 1 mps 754 mmHg 74%
    06:00 +19°C° 0 mm 1 mps 754 mmHg 74%
    07:00 +19°C° 0 mm 1 mps 755 mmHg 70%
    08:00 +20°C° 0 mm 1 mps 755 mmHg 65%
    09:00 +21°C° 0 mm 1 mps 755 mmHg 60%
    10:00 +21°C° 0 mm 2 mps 755 mmHg 56%
    11:00 +21°C° 0 mm 3 mps 755 mmHg 52%
    12:00 +22°C° 0 mm 3 mps 755 mmHg 48%
    13:00 +24°C° 0 mm 3 mps 754 mmHg 45%
    14:00 +24°C° 0 mm 3 mps 754 mmHg 43%
    15:00 +24°C° 0 mm 2 mps 753 mmHg 40%
    16:00 +24°C° 0 mm 2 mps 753 mmHg 40%
    17:00 +24°C° 0 mm 2 mps 753 mmHg 40%
    18:00 +24°C° 0 mm 2 mps 753 mmHg 40%
    19:00 +23°C° 0 mm 2 mps 754 mmHg 42%
    20:00 +23°C° 0 mm 2 mps 755 mmHg 44%
    21:00 +21°C° 0 mm 2 mps 755 mmHg 45%
    22:00 +21°C° 0 mm 2 mps 755 mmHg 47%
    23:00 +20°C° 0 mm 3 mps 755 mmHg 48%

    12 April, Sunday

    Time Temperature Precipitation Wind Pressure Humidity
    00:00 +19°C° 0 mm 4 mps 755 mmHg 50%
    01:00 +19°C° 0 mm 3 mps 755 mmHg 51%
    02:00 +18°C° 0 mm 3 mps 754 mmHg 53%
    03:00 +18°C° 0 mm 2 mps 754 mmHg 55%
    04:00 +18°C° 0 mm 2 mps 754 mmHg 55%
    05:00 +17°C° 0 mm 2 mps 754 mmHg 56%
    06:00 +18°C° 0 mm 1 mps 754 mmHg 56%
    07:00 +18°C° 0 mm 2 mps 755 mmHg 52%
    08:00 +19°C° 0 mm 3 mps 755 mmHg 48%
    09:00 +20°C° 0 mm 3 mps 755 mmHg 44%
    10:00 +21°C° 0 mm 3 mps 755 mmHg 41%
    11:00 +22°C° 0 mm 3 mps 754 mmHg 39%
    12:00 +24°C° 0 mm 3 mps 754 mmHg 36%
    13:00 +24°C° 0 mm 3 mps 753 mmHg 34%
    14:00 +25°C° 0 mm 3 mps 753 mmHg 33%
    15:00 +25°C° 0 mm 2 mps 752 mmHg 32%
    16:00 +25°C° 0 mm 2 mps 752 mmHg 33%
    17:00 +25°C° 0 mm 2 mps 752 mmHg 33%
    18:00 +25°C° 0 mm 1 mps 752 mmHg 34%
    19:00 +24°C° 0 mm 2 mps 752 mmHg 36%
    20:00 +24°C° 0 mm 2 mps 752 mmHg 37%
    21:00 +24°C° 0 mm 2 mps 753 mmHg 39%
    22:00 +23°C° 0 mm 2 mps 752 mmHg 40%
    23:00 +22°C° 0 mm 3 mps 752 mmHg 41%
    Show more